This is the latest recevied weather packets stored in our database for station/object W8AN. If no packets are shown the sender has not sent any weather packets the latest 10 day(s).
| Time | Temp. | Humidity | Pressure | Rain* | Wind** | Luminosity | Snow |
|---|---|---|---|---|---|---|---|
| 1778072872 | 9.44° C | 70% | 4265.9 hPa | 0 mm | - | 336 W/m² | - |
| 1778072569 | 8.89° C | 73% | 4265.9 hPa | 0 mm | - | 357 W/m² | - |
| 1778072267 | 8.89° C | 73% | 4265.7 hPa | 0 mm | - | 217 W/m² | - |
| 1778071965 | 8.89° C | 74% | 4265.7 hPa | 0 mm | - | 288 W/m² | - |
| 1778071663 | 8.89° C | 75% | 4265.5 hPa | 0 mm | - | 235 W/m² | - |
| 1778071360 | 8.89° C | 78% | 4265.9 hPa | 0 mm | - | 186 W/m² | - |
| 1778071058 | 8.33° C | 79% | 4265.7 hPa | 0 mm | - | 154 W/m² | - |
| 1778070756 | 8.33° C | 79% | 4265.8 hPa | 0 mm | - | 145 W/m² | - |
| 1778070453 | 8.33° C | 80% | 4265.7 hPa | 0 mm | - | 139 W/m² | - |
| 1778070150 | 7.78° C | 80% | 4265.5 hPa | 0 mm | - | 146 W/m² | - |
| 1778069848 | 7.78° C | 81% | 4265.4 hPa | 0 mm | - | 188 W/m² | - |
| 1778069544 | 7.22° C | 82% | 4265.5 hPa | 0 mm | - | 118 W/m² | - |
| 1778069242 | 7.22° C | 82% | 4265.3 hPa | 0 mm | - | 109 W/m² | - |
| 1778068940 | 7.22° C | 82% | 4265.1 hPa | 0 mm | - | 59 W/m² | - |
| 1778068637 | 7.22° C | 82% | 4265.3 hPa | 0 mm | - | 60 W/m² | - |
| 1778068335 | 7.22° C | 82% | 4265.3 hPa | 0 mm | - | 62 W/m² | - |
| 1778068033 | 7.22° C | 82% | 4265.2 hPa | 0 mm | - | 57 W/m² | - |
| 1778067730 | 7.22° C | 83% | 4265 hPa | 0 mm | - | 60 W/m² | - |
| 1778067428 | 7.22° C | 83% | 4265.2 hPa | 0 mm | - | 52 W/m² | - |
| 1778067126 | 7.22° C | 83% | 4264.9 hPa | 0 mm | - | 44 W/m² | - |
| 1778066821 | 7.22° C | 83% | 4265 hPa | 0 mm | - | 47 W/m² | - |
| 1778066520 | 6.67° C | 83% | 4264.8 hPa | 0 mm | - | 39 W/m² | - |
| 1778066217 | 6.67° C | 83% | 4264.9 hPa | 0 mm | - | 25 W/m² | - |
| 1778065914 | 6.67° C | 83% | 4264.8 hPa | 0 mm | - | 21 W/m² | - |
| 1778065611 | 6.67° C | 83% | 4264.8 hPa | 0 mm | - | 11 W/m² | - |
* Rain latest hour (hover to see other rain measurements)
** Current wind speed in m/s (hover to see current wind gust speed)